Time,TemperatureF,DewpointF,PressureIn,WindDirection,WindDirectionDegrees,WindSpeedMPH,WindSpeedGustMPH,Humidity,HourlyPrecipIn,Conditions,Clouds,dailyrainin,SoftwareType,DateUTC
2013-03-16 00:00:00,34.0,7.2,28.91,NNW,344,0.0,0.0,32,0.00,,---,0.00,VWS V14.01,2013-03-16 04:00:00,
2013-03-16 00:03:00,33.8,7.1,28.91,NW,317,0.0,0.0,32,0.00,,---,0.00,VWS V14.01,2013-03-16 04:03:00,
2013-03-16 00:08:00,33.8,7.1,28.91,North,0,0.0,0.0,32,0.00,,---,0.00,VWS V14.01,2013-03-16 04:08:00,
2013-03-16 00:13:00,33.6,6.9,28.91,North,6,0.0,0.0,32,0.00,,---,0.00,VWS V14.01,2013-03-16 04:13:00,
2013-03-16 00:19:00,33.6,6.9,28.91,North,6,0.0,0.0,32,0.00,,---,0.00,VWS V14.01,2013-03-16 04:19:00,
2013-03-16 00:24:00,33.6,6.9,28.91,North,6,0.0,0.0,32,0.00,,---,0.00,VWS V14.01,2013-03-16 04:24:00,
2013-03-16 00:29:00,33.6,6.9,28.91,ENE,77,0.0,0.0,32,0.00,,---,0.00,VWS V14.01,2013-03-16 04:29:00,
2013-03-16 00:34:00,33.4,7.4,28.91,ESE,110,0.0,0.0,33,0.00,,---,0.00,VWS V14.01,2013-03-16 04:34:00,
2013-03-16 00:39:00,33.6,7.6,28.91,North,0,0.0,0.0,33,0.00,,---,0.00,VWS V14.01,2013-03-16 04:39:00,
2013-03-16 00:41:00,33.6,7.6,28.91,NNW,338,2.7,4.0,33,0.00,,---,0.00,VWS V14.01,2013-03-16 04:41:00,
2013-03-16 00:47:00,33.6,7.6,28.91,NW,323,0.0,4.5,33,0.00,,---,0.00,VWS V14.01,2013-03-16 04:47:00,
2013-03-16 00:52:00,33.6,7.6,28.91,North,3,0.0,4.5,33,0.00,,---,0.00,VWS V14.01,2013-03-16 04:52:00,
2013-03-16 00:57:00,33.4,7.4,28.91,SE,124,0.0,3.6,33,0.00,,---,0.00,VWS V14.01,2013-03-16 04:57:00,
2013-03-16 01:02:00,33.3,7.3,28.91,NNW,347,0.0,3.6,33,0.00,,---,0.00,VWS V14.01,2013-03-16 05:02:00,
2013-03-16 01:07:00,33.3,7.3,28.91,SE,127,0.0,0.0,33,0.00,,---,0.00,VWS V14.01,2013-03-16 05:07:00,
2013-03-16 01:12:00,33.3,7.3,28.91,ENE,60,0.0,0.0,33,0.00,,---,0.00,VWS V14.01,2013-03-16 05:12:00,
2013-03-16 01:17:00,33.1,7.8,28.91,SSE,154,0.0,0.0,34,0.00,,---,0.00,VWS V14.01,2013-03-16 05:17:00,
2013-03-16 01:22:00,33.1,7.8,28.91,ESE,117,0.0,0.0,34,0.00,,---,0.00,VWS V14.01,2013-03-16 05:22:00,
2013-03-16 01:27:00,32.9,7.6,28.91,North,351,0.0,3.6,34,0.00,,---,0.00,VWS V14.01,2013-03-16 05:27:00,
2013-03-16 01:32:00,32.9,8.3,28.91,North,1,4.5,4.5,35,0.00,,---,0.00,VWS V14.01,2013-03-16 05:32:00,
2013-03-16 01:37:00,32.9,7.6,28.91,NNW,337,4.0,4.9,34,0.00,,---,0.00,VWS V14.01,2013-03-16 05:37:00,
2013-03-16 01:43:00,32.9,7.6,28.91,North,0,0.0,0.0,34,0.00,,---,0.00,VWS V14.01,2013-03-16 05:43:00,
2013-03-16 01:48:00,32.9,7.6,28.91,NW,305,0.0,0.0,34,0.00,,---,0.00,VWS V14.01,2013-03-16 05:48:00,
2013-03-16 01:53:00,32.9,7.6,28.91,NNE,29,3.6,4.0,34,0.00,,---,0.00,VWS V14.01,2013-03-16 05:53:00,
2013-03-16 01:58:00,32.7,7.5,28.91,ESE,114,0.0,0.0,34,0.00,,---,0.00,VWS V14.01,2013-03-16 05:58:00,
2013-03-16 02:04:00,32.7,7.5,28.91,NE,55,0.0,0.0,34,0.00,,---,0.00,VWS V14.01,2013-03-16 06:04:00,
2013-03-16 02:10:00,32.7,7.5,28.91,NE,55,0.0,0.0,34,0.00,,---,0.00,VWS V14.01,2013-03-16 06:10:00,
2013-03-16 02:15:00,32.5,7.3,28.91,South,175,0.0,0.0,34,0.00,,---,0.00,VWS V14.01,2013-03-16 06:15:00,
2013-03-16 02:20:00,32.5,7.3,28.91,SW,220,0.0,0.0,34,0.00,,---,0.00,VWS V14.01,2013-03-16 06:20:00,
2013-03-16 02:25:00,32.4,6.5,28.91,SW,220,0.0,0.0,33,0.00,,---,0.00,VWS V14.01,2013-03-16 06:25:00,
2013-03-16 02:30:00,32.4,6.5,28.91,NNE,20,0.0,0.0,33,0.00,,---,0.00,VWS V14.01,2013-03-16 06:30:00,
2013-03-16 02:35:00,32.2,6.3,28.91,NNE,20,0.0,0.0,33,0.00,,---,0.00,VWS V14.01,2013-03-16 06:35:00,
2013-03-16 02:38:00,32.2,6.3,28.91,North,351,0.0,0.0,33,0.00,,---,0.00,VWS V14.01,2013-03-16 06:38:00,
2013-03-16 02:43:00,32.2,6.3,28.91,SSW,198,0.0,3.1,33,0.00,,---,0.00,VWS V14.01,2013-03-16 06:43:00,
2013-03-16 02:48:00,32.2,6.3,28.94,SSW,198,0.0,0.0,33,0.00,,---,0.00,VWS V14.01,2013-03-16 06:48:00,
2013-03-16 02:53:00,32.2,6.3,28.94,SSW,199,0.0,0.0,33,0.00,,---,0.00,VWS V14.01,2013-03-16 06:53:00,
2013-03-16 02:58:00,32.0,5.5,28.94,SSW,198,0.0,0.0,32,0.00,,---,0.00,VWS V14.01,2013-03-16 06:58:00,
2013-03-16 03:04:00,31.8,5.3,28.94,SSW,198,0.0,0.0,32,0.00,,---,0.00,VWS V14.01,2013-03-16 07:04:00,
2013-03-16 03:10:00,31.8,5.3,28.94,SSW,199,0.0,0.0,32,0.00,,---,0.00,VWS V14.01,2013-03-16 07:10:00,
2013-03-16 03:15:00,31.8,5.3,28.94,SSW,198,0.0,0.0,32,0.00,,---,0.00,VWS V14.01,2013-03-16 07:15:00,
2013-03-16 03:20:00,31.6,5.2,28.94,SSW,198,0.0,0.0,32,0.00,,---,0.00,VWS V14.01,2013-03-16 07:20:00,
2013-03-16 03:25:00,31.5,4.3,28.94,SSW,198,0.0,0.0,31,0.00,,---,0.00,VWS V14.01,2013-03-16 07:25:00,
2013-03-16 03:30:00,31.5,4.3,28.94,SSW,198,0.0,0.0,31,0.00,,---,0.00,VWS V14.01,2013-03-16 07:30:00,
2013-03-16 03:35:00,31.3,4.2,28.94,SSW,198,0.0,0.0,31,0.00,,---,0.00,VWS V14.01,2013-03-16 07:35:00,
2013-03-16 03:40:00,31.3,4.2,28.94,SSW,198,0.0,0.0,31,0.00,,---,0.00,VWS V14.01,2013-03-16 07:40:00,
2013-03-16 03:45:00,31.3,4.2,28.94,SSW,198,0.0,0.0,31,0.00,,---,0.00,VWS V14.01,2013-03-16 07:45:00,
2013-03-16 03:50:00,31.3,4.2,28.94,SSW,198,0.0,0.0,31,0.00,,---,0.00,VWS V14.01,2013-03-16 07:50:00,
2013-03-16 03:55:00,31.3,4.2,28.94,SSW,198,0.0,0.0,31,0.00,,---,0.00,VWS V14.01,2013-03-16 07:55:00,
2013-03-16 04:00:00,31.3,4.2,28.94,SSW,198,0.0,0.0,31,0.00,,---,0.00,VWS V14.01,2013-03-16 08:00:00,
2013-03-16 04:05:00,31.3,4.2,28.94,SSW,198,0.0,0.0,31,0.00,,---,0.00,VWS V14.01,2013-03-16 08:05:00,
2013-03-16 04:10:00,31.5,4.3,28.94,SSW,198,0.0,0.0,31,0.00,,---,0.00,VWS V14.01,2013-03-16 08:10:00,
2013-03-16 04:15:00,31.6,4.5,28.94,SSW,199,0.0,0.0,31,0.00,,---,0.00,VWS V14.01,2013-03-16 08:15:00,
2013-03-16 04:20:00,31.8,5.3,28.94,SSW,198,0.0,0.0,32,0.00,,---,0.00,VWS V14.01,2013-03-16 08:20:00,
2013-03-16 04:25:00,31.8,5.3,28.94,SSW,198,0.0,0.0,32,0.00,,---,0.00,VWS V14.01,2013-03-16 08:25:00,
2013-03-16 04:30:00,31.8,4.6,28.94,SSW,198,0.0,0.0,31,0.00,,---,0.00,VWS V14.01,2013-03-16 08:30:00,
2013-03-16 04:35:00,32.0,4.8,28.94,SSW,198,3.6,3.6,31,0.00,,---,0.00,VWS V14.01,2013-03-16 08:35:00,
2013-03-16 04:40:00,31.8,4.6,28.94,SSW,198,0.0,0.0,31,0.00,,---,0.00,VWS V14.01,2013-03-16 08:40:00,
2013-03-16 04:45:00,31.8,4.6,28.94,North,351,4.5,4.5,31,0.00,,---,0.00,VWS V14.01,2013-03-16 08:45:00,
2013-03-16 04:50:00,31.8,4.6,28.94,North,351,3.1,3.6,31,0.00,,---,0.00,VWS V14.01,2013-03-16 08:50:00,
2013-03-16 04:55:00,31.6,4.5,28.94,North,351,0.0,2.7,31,0.00,,---,0.00,VWS V14.01,2013-03-16 08:55:00,
2013-03-16 05:00:00,31.5,4.3,28.97,North,0,0.0,3.1,31,0.00,,---,0.00,VWS V14.01,2013-03-16 09:00:00,
2013-03-16 05:05:00,31.5,3.6,28.97,North,0,0.0,0.0,30,0.00,,---,0.00,VWS V14.01,2013-03-16 09:05:00,
2013-03-16 05:10:00,31.5,3.6,28.97,North,0,3.6,3.6,30,0.00,,---,0.00,VWS V14.01,2013-03-16 09:10:00,
2013-03-16 05:15:00,31.3,3.5,28.97,North,1,3.6,4.9,30,0.00,,---,0.00,VWS V14.01,2013-03-16 09:15:00,
2013-03-16 05:20:00,31.3,2.0,28.97,North,351,4.0,4.5,28,0.00,,---,0.00,VWS V14.01,2013-03-16 09:20:00,
2013-03-16 05:25:00,31.3,2.0,28.97,NNW,345,4.0,5.4,28,0.00,,---,0.00,VWS V14.01,2013-03-16 09:25:00,
2013-03-16 05:30:00,31.1,1.8,28.97,NNW,346,0.0,0.0,28,0.00,,---,0.00,VWS V14.01,2013-03-16 09:30:00,
2013-03-16 05:35:00,30.9,1.7,28.97,North,351,3.6,4.5,28,0.00,,---,0.00,VWS V14.01,2013-03-16 09:35:00,
2013-03-16 05:40:00,30.9,-0.8,28.97,North,0,3.6,4.0,25,0.00,,---,0.00,VWS V14.01,2013-03-16 09:40:00,
2013-03-16 05:45:00,30.7,1.5,28.97,North,0,4.5,4.5,28,0.00,,---,0.00,VWS V14.01,2013-03-16 09:45:00,
2013-03-16 05:50:00,30.7,1.5,28.97,North,2,3.1,5.4,28,0.00,,---,0.00,VWS V14.01,2013-03-16 09:50:00,
2013-03-16 05:55:00,30.6,2.8,28.97,North,6,4.0,4.0,30,0.00,,---,0.00,VWS V14.01,2013-03-16 09:55:00,
2013-03-16 06:00:00,30.4,3.4,28.97,North,2,2.7,3.6,31,0.00,,---,0.00,VWS V14.01,2013-03-16 10:00:00,
2013-03-16 06:05:00,30.2,3.2,28.97,North,9,0.0,0.0,31,0.00,,---,0.00,VWS V14.01,2013-03-16 10:05:00,
2013-03-16 06:10:00,30.0,3.8,28.97,NNE,14,3.1,4.0,32,0.00,,---,0.00,VWS V14.01,2013-03-16 10:10:00,
2013-03-16 06:15:00,29.7,3.4,28.97,North,3,2.7,4.0,32,0.00,,---,0.00,VWS V14.01,2013-03-16 10:15:00,
2013-03-16 06:20:00,29.7,3.4,28.97,North,0,3.6,4.5,32,0.00,,---,0.00,VWS V14.01,2013-03-16 10:20:00,
2013-03-16 06:25:00,29.5,3.9,28.97,North,0,3.6,4.0,33,0.00,,---,0.00,VWS V14.01,2013-03-16 10:25:00,
2013-03-16 06:30:00,29.3,3.8,29.00,North,6,0.0,4.0,33,0.00,,---,0.00,VWS V14.01,2013-03-16 10:30:00,
2013-03-16 06:35:00,29.3,4.4,29.00,NE,43,3.1,3.6,34,0.00,,---,0.00,VWS V14.01,2013-03-16 10:35:00,
2013-03-16 06:40:00,29.3,4.4,29.00,NE,35,0.0,0.0,34,0.00,,---,0.00,VWS V14.01,2013-03-16 10:40:00,
2013-03-16 06:45:00,29.1,4.3,29.00,NE,35,0.0,0.0,34,0.00,,---,0.00,VWS V14.01,2013-03-16 10:45:00,
2013-03-16 06:50:00,29.1,4.3,29.00,NE,35,0.0,0.0,34,0.00,,---,0.00,VWS V14.01,2013-03-16 10:50:00,
2013-03-16 06:55:00,29.1,4.3,29.00,NE,35,0.0,0.0,34,0.00,,---,0.00,VWS V14.01,2013-03-16 10:55:00,
2013-03-16 07:00:00,28.9,4.1,29.00,NE,47,0.0,0.0,34,0.00,,---,0.00,VWS V14.01,2013-03-16 11:00:00,
2013-03-16 07:05:00,28.8,4.6,29.00,NE,47,0.0,0.0,35,0.00,,---,0.00,VWS V14.01,2013-03-16 11:05:00,
2013-03-16 07:10:00,28.8,4.6,29.00,NE,47,0.0,0.0,35,0.00,,---,0.00,VWS V14.01,2013-03-16 11:10:00,
2013-03-16 07:15:00,28.6,4.4,29.00,ENE,73,0.0,0.0,35,0.00,,---,0.00,VWS V14.01,2013-03-16 11:15:00,
2013-03-16 07:20:00,28.6,4.4,29.00,East,84,0.0,0.0,35,0.00,,---,0.00,VWS V14.01,2013-03-16 11:20:00,
2013-03-16 07:25:00,28.6,4.4,29.00,NNE,15,0.0,0.0,35,0.00,,---,0.00,VWS V14.01,2013-03-16 11:25:00,
2013-03-16 07:31:00,28.4,4.9,29.00,NNE,30,0.0,0.0,36,0.00,,---,0.00,VWS V14.01,2013-03-16 11:31:00,
2013-03-16 07:36:00,28.4,4.9,29.00,ENE,70,2.7,3.6,36,0.00,,---,0.00,VWS V14.01,2013-03-16 11:36:00,
2013-03-16 07:41:00,28.4,4.2,29.00,North,351,2.7,4.9,35,0.00,,---,0.00,VWS V14.01,2013-03-16 11:41:00,
2013-03-16 07:46:00,28.8,3.9,29.00,NNE,18,4.0,4.0,34,0.00,,---,0.00,VWS V14.01,2013-03-16 11:46:00,
2013-03-16 07:52:00,29.3,3.8,29.00,East,79,0.0,0.0,33,0.00,,---,0.00,VWS V14.01,2013-03-16 11:52:00,
2013-03-16 07:58:00,29.5,3.3,29.00,NNE,20,3.1,4.5,32,0.00,,---,0.00,VWS V14.01,2013-03-16 11:58:00,
2013-03-16 08:03:00,29.5,2.6,29.00,East,86,0.0,3.1,31,0.00,,---,0.00,VWS V14.01,2013-03-16 12:03:00,
2013-03-16 08:08:00,29.5,2.6,29.00,North,7,4.5,4.5,31,0.00,,---,0.00,VWS V14.01,2013-03-16 12:08:00,
2013-03-16 08:13:00,29.5,2.6,29.00,NNE,18,0.0,0.0,31,0.00,,---,0.00,VWS V14.01,2013-03-16 12:13:00,
2013-03-16 08:19:00,29.7,2.7,29.00,NNE,22,3.6,3.6,31,0.00,,---,0.00,VWS V14.01,2013-03-16 12:19:00,
2013-03-16 08:24:00,29.7,2.7,29.00,North,10,4.0,4.9,31,0.00,,---,0.00,VWS V14.01,2013-03-16 12:24:00,
2013-03-16 08:29:00,29.7,2.0,29.00,NNE,22,0.0,6.9,30,0.00,,---,0.00,VWS V14.01,2013-03-16 12:29:00,
2013-03-16 08:35:00,29.5,1.9,29.03,NNE,17,2.7,4.5,30,0.00,,---,0.00,VWS V14.01,2013-03-16 12:35:00,
2013-03-16 08:40:00,29.7,2.0,29.03,East,92,3.1,4.0,30,0.00,,---,0.00,VWS V14.01,2013-03-16 12:40:00,
2013-03-16 08:46:00,29.8,2.2,29.03,ENE,77,0.0,3.1,30,0.00,,---,0.00,VWS V14.01,2013-03-16 12:46:00,
2013-03-16 08:52:00,29.8,0.7,29.03,NNE,17,4.0,4.0,28,0.00,,---,0.00,VWS V14.01,2013-03-16 12:52:00,
2013-03-16 08:58:00,29.7,0.6,29.03,NNE,21,2.7,4.0,28,0.00,,---,0.00,VWS V14.01,2013-03-16 12:58:00,
2013-03-16 09:04:00,29.8,0.7,29.03,NNE,26,0.0,2.7,28,0.00,,---,0.00,VWS V14.01,2013-03-16 13:04:00,
2013-03-16 09:09:00,29.8,0.7,29.03,ENE,78,3.6,4.5,28,0.00,,---,0.00,VWS V14.01,2013-03-16 13:09:00,
2013-03-16 09:14:00,30.4,1.2,29.03,ENE,61,0.0,3.6,28,0.00,,---,0.00,VWS V14.01,2013-03-16 13:14:00,
2013-03-16 09:20:00,30.4,1.2,29.03,NE,41,0.0,0.0,28,0.00,,---,0.00,VWS V14.01,2013-03-16 13:20:00,
2013-03-16 09:25:00,30.7,1.5,29.03,ENE,64,3.1,4.5,28,0.00,,---,0.00,VWS V14.01,2013-03-16 13:25:00,
2013-03-16 09:30:00,30.6,-1.1,29.03,North,7,0.0,0.0,25,0.00,,---,0.00,VWS V14.01,2013-03-16 13:30:00,
2013-03-16 09:35:00,30.9,-0.8,29.03,East,84,4.5,4.5,25,0.00,,---,0.00,VWS V14.01,2013-03-16 13:35:00,
2013-03-16 09:41:00,31.5,-0.3,29.03,ENE,68,0.0,0.0,25,0.00,,---,0.00,VWS V14.01,2013-03-16 13:41:00,
2013-03-16 09:46:00,32.0,2.6,29.00,ENE,65,2.7,4.0,28,0.00,,---,0.00,VWS V14.01,2013-03-16 13:46:00,
2013-03-16 09:51:00,31.8,0.0,29.00,NE,52,3.1,3.1,25,0.00,,---,0.00,VWS V14.01,2013-03-16 13:51:00,
2013-03-16 09:56:00,32.0,0.2,29.00,North,0,3.6,4.9,25,0.00,,---,0.00,VWS V14.01,2013-03-16 13:56:00,
2013-03-16 10:01:00,31.8,0.0,29.00,ESE,103,2.7,5.4,25,0.00,,---,0.00,VWS V14.01,2013-03-16 14:01:00,
2013-03-16 10:06:00,31.5,-0.3,29.00,ENE,72,7.4,7.4,25,0.00,,---,0.00,VWS V14.01,2013-03-16 14:06:00,
2013-03-16 10:11:00,32.0,0.2,29.00,ESE,104,0.0,4.0,25,0.00,,---,0.00,VWS V14.01,2013-03-16 14:11:00,
2013-03-16 10:17:00,31.5,-2.0,29.00,NNE,14,3.1,4.9,23,0.00,,---,0.00,VWS V14.01,2013-03-16 14:17:00,
2013-03-16 10:22:00,31.6,-0.1,29.00,NE,53,2.7,4.0,25,0.00,,---,0.00,VWS V14.01,2013-03-16 14:22:00,
2013-03-16 10:27:00,31.6,-0.1,29.00,ENE,76,4.5,4.5,25,0.00,,---,0.00,VWS V14.01,2013-03-16 14:27:00,
2013-03-16 10:32:00,32.2,0.3,29.00,ENE,77,2.7,3.6,25,0.00,,---,0.00,VWS V14.01,2013-03-16 14:32:00,
2013-03-16 10:37:00,32.2,-1.4,29.00,ESE,115,0.0,0.0,23,0.00,,---,0.00,VWS V14.01,2013-03-16 14:37:00,
2013-03-16 10:42:00,31.8,-1.8,29.00,North,8,0.0,3.6,23,0.00,,---,0.00,VWS V14.01,2013-03-16 14:42:00,
2013-03-16 10:47:00,32.0,-1.6,29.00,East,92,2.7,2.7,23,0.00,,---,0.00,VWS V14.01,2013-03-16 14:47:00,
2013-03-16 10:53:00,32.5,-1.1,29.00,East,98,3.1,3.1,23,0.00,,---,0.00,VWS V14.01,2013-03-16 14:53:00,
2013-03-16 10:58:00,32.7,-1.0,29.00,NNE,21,0.0,0.0,23,0.00,,---,0.00,VWS V14.01,2013-03-16 14:58:00,
2013-03-16 11:03:00,33.3,-1.5,29.00,NE,40,2.7,3.1,22,0.00,,---,0.00,VWS V14.01,2013-03-16 15:03:00,
2013-03-16 11:08:00,33.3,-1.5,29.00,NE,53,0.0,0.0,22,0.00,,---,0.00,VWS V14.01,2013-03-16 15:08:00,
2013-03-16 11:13:00,33.3,-1.5,29.00,ENE,62,0.0,4.0,22,0.00,,---,0.00,VWS V14.01,2013-03-16 15:13:00,
2013-03-16 11:19:00,33.6,-1.2,29.00,ENE,71,0.0,0.0,22,0.00,,---,0.00,VWS V14.01,2013-03-16 15:19:00,
2013-03-16 11:24:00,34.0,-0.9,29.00,ENE,78,3.1,3.6,22,0.00,,---,0.00,VWS V14.01,2013-03-16 15:24:00,
2013-03-16 11:29:00,34.3,-0.6,29.00,NE,56,3.1,4.0,22,0.00,,---,0.00,VWS V14.01,2013-03-16 15:29:00,
2013-03-16 11:34:00,34.5,-0.4,29.00,NNE,21,0.0,2.7,22,0.00,,---,0.00,VWS V14.01,2013-03-16 15:34:00,
2013-03-16 11:39:00,34.5,-0.4,29.00,ENE,77,0.0,0.0,22,0.00,,---,0.00,VWS V14.01,2013-03-16 15:39:00,
2013-03-16 11:45:00,35.1,0.1,29.00,East,80,0.0,0.0,22,0.00,,---,0.00,VWS V14.01,2013-03-16 15:45:00,
2013-03-16 11:50:00,34.9,-0.1,29.00,North,7,0.0,4.5,22,0.00,,---,0.00,VWS V14.01,2013-03-16 15:50:00,
2013-03-16 11:55:00,34.5,-0.4,29.00,NNW,336,2.7,3.1,22,0.00,,---,0.00,VWS V14.01,2013-03-16 15:55:00,
2013-03-16 12:00:00,35.1,0.1,28.97,SSW,205,0.0,3.1,22,0.00,,---,0.00,VWS V14.01,2013-03-16 16:00:00,
2013-03-16 12:05:00,36.1,1.0,28.97,ENE,66,4.0,4.9,22,0.00,,---,0.00,VWS V14.01,2013-03-16 16:05:00,
2013-03-16 12:11:00,36.5,0.3,28.97,East,99,0.0,2.7,21,0.00,,---,0.00,VWS V14.01,2013-03-16 16:11:00,
2013-03-16 12:16:00,36.5,1.3,28.97,ENE,67,4.5,4.5,22,0.00,,---,0.00,VWS V14.01,2013-03-16 16:16:00,
2013-03-16 12:22:00,36.1,1.0,28.97,ENE,78,0.0,0.0,22,0.00,,---,0.00,VWS V14.01,2013-03-16 16:22:00,
2013-03-16 12:27:00,36.1,1.0,28.97,ENE,75,0.0,0.0,22,0.00,,---,0.00,VWS V14.01,2013-03-16 16:27:00,
2013-03-16 12:32:00,35.8,0.7,28.97,NE,47,0.0,0.0,22,0.00,,---,0.00,VWS V14.01,2013-03-16 16:32:00,
2013-03-16 12:37:00,35.8,0.7,28.97,East,85,0.0,3.1,22,0.00,,---,0.00,VWS V14.01,2013-03-16 16:37:00,
2013-03-16 12:42:00,36.1,1.0,28.97,North,2,0.0,0.0,22,0.00,,---,0.00,VWS V14.01,2013-03-16 16:42:00,
2013-03-16 12:47:00,36.0,0.8,28.97,NNW,338,4.5,4.5,22,0.00,,---,0.00,VWS V14.01,2013-03-16 16:47:00,
2013-03-16 12:52:00,36.1,1.0,28.97,NNE,27,0.0,2.7,22,0.00,,---,0.00,VWS V14.01,2013-03-16 16:52:00,
2013-03-16 12:57:00,36.0,0.8,28.97,NNW,334,0.0,0.0,22,0.00,,---,0.00,VWS V14.01,2013-03-16 16:57:00,
2013-03-16 13:03:00,36.3,1.1,28.97,East,99,3.6,3.6,22,0.00,,---,0.00,VWS V14.01,2013-03-16 17:03:00,
2013-03-16 13:08:00,36.7,0.4,28.97,SE,141,0.0,0.0,21,0.00,,---,0.00,VWS V14.01,2013-03-16 17:08:00,
2013-03-16 13:13:00,37.0,0.7,28.97,NW,321,4.0,4.0,21,0.00,,---,0.00,VWS V14.01,2013-03-16 17:13:00,
2013-03-16 13:19:00,36.3,1.1,28.97,NNW,340,0.0,0.0,22,0.00,,---,0.00,VWS V14.01,2013-03-16 17:19:00,
2013-03-16 13:24:00,36.1,1.0,28.97,East,88,0.0,0.0,22,0.00,,---,0.00,VWS V14.01,2013-03-16 17:24:00,
2013-03-16 13:30:00,35.6,0.5,28.94,NNE,14,0.0,0.0,22,0.00,,---,0.00,VWS V14.01,2013-03-16 17:30:00,
2013-03-16 13:35:00,35.6,-2.6,28.94,ENE,70,0.0,0.0,19,0.00,,---,0.00,VWS V14.01,2013-03-16 17:35:00,
2013-03-16 13:40:00,36.0,0.8,28.94,South,181,0.0,3.1,22,0.00,,---,0.00,VWS V14.01,2013-03-16 17:40:00,
2013-03-16 13:45:00,36.1,1.0,28.97,WSW,241,0.0,0.0,22,0.00,,---,0.00,VWS V14.01,2013-03-16 17:45:00,
2013-03-16 13:50:00,36.5,1.3,28.97,NNW,340,3.1,3.6,22,0.00,,---,0.00,VWS V14.01,2013-03-16 17:50:00,
2013-03-16 13:55:00,35.6,0.5,28.97,East,82,0.0,3.1,22,0.00,,---,0.00,VWS V14.01,2013-03-16 17:55:00,
2013-03-16 14:00:00,35.2,0.2,28.97,NNW,341,0.0,4.9,22,0.00,,---,0.00,VWS V14.01,2013-03-16 18:00:00,
2013-03-16 14:07:00,35.1,0.1,28.97,SE,134,0.0,0.0,22,0.00,,---,0.00,VWS V14.01,2013-03-16 18:07:00,
2013-03-16 14:12:00,35.1,1.9,28.97,ESE,104,0.0,0.0,24,0.00,,---,0.00,VWS V14.01,2013-03-16 18:12:00,
2013-03-16 14:17:00,34.9,1.8,28.97,NW,315,0.0,4.0,24,0.00,,---,0.00,VWS V14.01,2013-03-16 18:17:00,
2013-03-16 14:22:00,34.3,3.8,28.97,South,173,0.0,0.0,27,0.00,,---,0.00,VWS V14.01,2013-03-16 18:22:00,
2013-03-16 14:27:00,34.2,3.7,28.97,SSE,147,0.0,0.0,27,0.00,,---,0.00,VWS V14.01,2013-03-16 18:27:00,
2013-03-16 14:33:00,33.8,5.7,28.97,NE,35,0.0,0.0,30,0.00,,---,0.00,VWS V14.01,2013-03-16 18:33:00,
2013-03-16 14:38:00,33.4,5.3,28.97,NE,34,0.0,0.0,30,0.00,,---,0.00,VWS V14.01,2013-03-16 18:38:00,
2013-03-16 14:44:00,33.1,5.8,28.97,NE,49,0.0,0.0,31,0.00,,---,0.00,VWS V14.01,2013-03-16 18:44:00,
2013-03-16 14:49:00,32.4,7.1,28.97,NE,49,0.0,0.0,34,0.00,,---,0.00,VWS V14.01,2013-03-16 18:49:00,
2013-03-16 14:55:00,32.2,7.6,28.97,NE,49,0.0,0.0,35,0.00,,---,0.00,VWS V14.01,2013-03-16 18:55:00,
2013-03-16 15:00:00,31.8,9.7,28.97,North,0,0.0,0.0,39,0.00,,---,0.00,VWS V14.01,2013-03-16 19:00:00,
2013-03-16 15:05:00,31.6,10.1,28.97,ENE,63,0.0,0.0,40,0.00,,---,0.00,VWS V14.01,2013-03-16 19:05:00,
2013-03-16 15:10:00,31.5,10.5,28.97,ENE,63,0.0,0.0,41,0.00,,---,0.00,VWS V14.01,2013-03-16 19:10:00,
2013-03-16 15:15:00,31.8,10.8,28.94,ENE,63,0.0,3.1,41,0.00,,---,0.00,VWS V14.01,2013-03-16 19:15:00,
2013-03-16 15:21:00,31.8,11.4,28.94,ENE,63,0.0,0.0,42,0.00,,---,0.00,VWS V14.01,2013-03-16 19:21:00,
2013-03-16 15:26:00,31.6,11.7,28.94,ENE,63,0.0,0.0,43,0.00,,---,0.00,VWS V14.01,2013-03-16 19:26:00,
2013-03-16 15:31:00,31.6,13.2,28.97,North,2,0.0,0.0,46,0.00,,---,0.00,VWS V14.01,2013-03-16 19:31:00,
2013-03-16 15:36:00,31.3,12.9,28.97,North,2,0.0,0.0,46,0.00,,---,0.00,VWS V14.01,2013-03-16 19:36:00,
2013-03-16 15:41:00,31.3,13.9,28.97,North,2,0.0,0.0,48,0.00,,---,0.00,VWS V14.01,2013-03-16 19:41:00,
2013-03-16 15:46:00,31.1,14.6,28.94,NE,44,0.0,3.1,50,0.00,,---,0.00,VWS V14.01,2013-03-16 19:46:00,
2013-03-16 15:51:00,30.6,13.2,28.94,NNE,12,0.0,0.0,48,0.00,,---,0.00,VWS V14.01,2013-03-16 19:51:00,
2013-03-16 15:56:00,30.7,13.4,28.94,NNE,12,0.0,0.0,48,0.00,,---,0.00,VWS V14.01,2013-03-16 19:56:00,
2013-03-16 16:01:00,30.4,11.6,28.94,NNE,12,0.0,0.0,45,0.00,,---,0.00,VWS V14.01,2013-03-16 20:01:00,
2013-03-16 16:06:00,30.9,12.1,28.94,NNE,27,0.0,0.0,45,0.00,,---,0.00,VWS V14.01,2013-03-16 20:06:00,
2013-03-16 16:11:00,31.3,12.4,28.94,NNE,27,0.0,0.0,45,0.00,,---,0.00,VWS V14.01,2013-03-16 20:11:00,
2013-03-16 16:16:00,31.3,12.9,28.94,NNE,27,0.0,0.0,46,0.00,,---,0.00,VWS V14.01,2013-03-16 20:16:00,
2013-03-16 16:21:00,31.3,12.9,28.94,NNE,27,0.0,0.0,46,0.00,,---,0.00,VWS V14.01,2013-03-16 20:21:00,
2013-03-16 16:27:00,31.3,12.9,28.94,NNE,27,0.0,0.0,46,0.00,,---,0.00,VWS V14.01,2013-03-16 20:27:00,
2013-03-16 16:33:00,31.6,13.7,28.94,NNE,31,0.0,0.0,47,0.00,,---,0.00,VWS V14.01,2013-03-16 20:33:00,
2013-03-16 16:38:00,31.5,13.6,28.94,NNE,19,0.0,0.0,47,0.00,,---,0.00,VWS V14.01,2013-03-16 20:38:00,
2013-03-16 16:43:00,31.5,13.6,28.94,NNE,19,0.0,0.0,47,0.00,,---,0.00,VWS V14.01,2013-03-16 20:43:00,
2013-03-16 16:48:00,31.5,13.6,28.94,NNE,19,0.0,0.0,47,0.00,,---,0.00,VWS V14.01,2013-03-16 20:48:00,
2013-03-16 16:53:00,31.3,14.4,28.94,NE,56,0.0,0.0,49,0.00,,---,0.00,VWS V14.01,2013-03-16 20:53:00,
2013-03-16 16:58:00,31.3,14.4,28.94,NE,56,0.0,0.0,49,0.00,,---,0.00,VWS V14.01,2013-03-16 20:58:00,
2013-03-16 17:03:00,31.1,14.6,28.94,NE,56,0.0,0.0,50,0.00,,---,0.00,VWS V14.01,2013-03-16 21:03:00,
2013-03-16 17:08:00,31.1,15.1,28.94,NE,56,0.0,0.0,51,0.00,,---,0.00,VWS V14.01,2013-03-16 21:08:00,
2013-03-16 17:13:00,30.9,14.9,28.94,NE,56,0.0,0.0,51,0.00,,---,0.00,VWS V14.01,2013-03-16 21:13:00,
2013-03-16 17:18:00,30.9,15.4,28.94,NE,56,0.0,0.0,52,0.00,,---,0.00,VWS V14.01,2013-03-16 21:18:00,
2013-03-16 17:24:00,31.1,15.5,28.94,NE,56,0.0,0.0,52,0.00,,---,0.00,VWS V14.01,2013-03-16 21:24:00,
2013-03-16 17:29:00,30.9,15.4,28.94,NE,55,2.7,3.1,52,0.00,,---,0.00,VWS V14.01,2013-03-16 21:29:00,
2013-03-16 17:34:00,30.9,15.4,28.94,NE,56,0.0,0.0,52,0.00,,---,0.00,VWS V14.01,2013-03-16 21:34:00,
2013-03-16 17:39:00,30.7,15.6,28.94,NE,56,0.0,0.0,53,0.00,,---,0.00,VWS V14.01,2013-03-16 21:39:00,
2013-03-16 17:44:00,30.7,15.6,28.94,NE,56,0.0,0.0,53,0.00,,---,0.00,VWS V14.01,2013-03-16 21:44:00,
2013-03-16 17:49:00,30.7,15.6,28.94,NE,55,0.0,0.0,53,0.00,,---,0.00,VWS V14.01,2013-03-16 21:49:00,
2013-03-16 17:54:00,30.6,15.5,28.94,NE,56,0.0,0.0,53,0.00,,---,0.00,VWS V14.01,2013-03-16 21:54:00,
2013-03-16 17:59:00,30.6,15.5,28.94,NE,56,0.0,0.0,53,0.00,,---,0.00,VWS V14.01,2013-03-16 21:59:00,
2013-03-16 18:04:00,30.6,15.5,28.94,NE,56,0.0,0.0,53,0.00,,---,0.00,VWS V14.01,2013-03-16 22:04:00,
2013-03-16 18:09:00,30.6,15.5,28.94,NE,56,0.0,0.0,53,0.00,,---,0.00,VWS V14.01,2013-03-16 22:09:00,
2013-03-16 18:14:00,30.6,15.5,28.94,NE,56,0.0,0.0,53,0.00,,---,0.00,VWS V14.01,2013-03-16 22:14:00,
2013-03-16 18:19:00,30.4,15.3,28.97,NE,56,0.0,0.0,53,0.00,,---,0.00,VWS V14.01,2013-03-16 22:19:00,
2013-03-16 18:24:00,30.6,15.5,28.97,NE,56,0.0,0.0,53,0.00,,---,0.00,VWS V14.01,2013-03-16 22:24:00,
2013-03-16 18:29:00,30.4,15.3,28.97,NE,56,0.0,0.0,53,0.00,,---,0.00,VWS V14.01,2013-03-16 22:29:00,
2013-03-16 18:34:00,30.4,14.9,28.97,NE,56,0.0,0.0,52,0.00,,---,0.00,VWS V14.01,2013-03-16 22:34:00,
2013-03-16 18:39:00,30.6,15.5,28.97,NE,56,0.0,0.0,53,0.00,,---,0.00,VWS V14.01,2013-03-16 22:39:00,
2013-03-16 18:44:00,30.6,15.0,28.97,NE,55,0.0,0.0,52,0.00,,---,0.00,VWS V14.01,2013-03-16 22:44:00,
2013-03-16 18:49:00,30.4,14.9,28.94,NE,56,0.0,0.0,52,0.00,,---,0.00,VWS V14.01,2013-03-16 22:49:00,
2013-03-16 18:54:00,30.4,14.9,28.94,NE,56,0.0,0.0,52,0.00,,---,0.00,VWS V14.01,2013-03-16 22:54:00,
2013-03-16 18:59:00,30.6,15.0,28.94,NE,56,0.0,0.0,52,0.00,,---,0.00,VWS V14.01,2013-03-16 22:59:00,
2013-03-16 19:04:00,30.6,15.0,28.97,NE,56,0.0,0.0,52,0.00,,---,0.00,VWS V14.01,2013-03-16 23:04:00,
2013-03-16 19:09:00,30.7,15.2,28.97,NE,56,0.0,0.0,52,0.00,,---,0.00,VWS V14.01,2013-03-16 23:09:00,
2013-03-16 19:14:00,30.7,15.2,28.97,NE,56,0.0,0.0,52,0.00,,---,0.00,VWS V14.01,2013-03-16 23:14:00,
2013-03-16 19:19:00,30.7,15.2,28.94,NE,56,0.0,0.0,52,0.00,,---,0.00,VWS V14.01,2013-03-16 23:19:00,
2013-03-16 19:24:00,30.6,15.0,28.94,NE,56,0.0,0.0,52,0.00,,---,0.00,VWS V14.01,2013-03-16 23:24:00,
2013-03-16 19:29:00,30.6,15.5,28.94,NE,56,0.0,0.0,53,0.00,,---,0.00,VWS V14.01,2013-03-16 23:29:00,
2013-03-16 19:34:00,30.7,15.6,28.97,NE,56,0.0,0.0,53,0.00,,---,0.00,VWS V14.01,2013-03-16 23:34:00,
2013-03-16 19:39:00,30.7,16.1,28.97,NE,56,0.0,0.0,54,0.00,,---,0.00,VWS V14.01,2013-03-16 23:39:00,
2013-03-16 19:44:00,30.7,16.1,28.97,NE,56,0.0,0.0,54,0.00,,---,0.00,VWS V14.01,2013-03-16 23:44:00,
2013-03-16 19:49:00,30.7,16.5,28.97,NE,56,0.0,0.0,55,0.00,,---,0.00,VWS V14.01,2013-03-16 23:49:00,
2013-03-16 19:54:00,30.6,16.3,28.97,NE,56,0.0,0.0,55,0.00,,---,0.00,VWS V14.01,2013-03-16 23:54:00,
2013-03-16 19:59:00,30.6,16.7,28.97,NE,56,0.0,0.0,56,0.00,,---,0.00,VWS V14.01,2013-03-16 23:59:00,
2013-03-16 20:04:00,30.6,16.7,28.97,NE,56,0.0,0.0,56,0.00,,---,0.00,VWS V14.01,2013-03-17 00:04:00,
2013-03-16 20:09:00,30.6,16.7,28.97,NE,56,0.0,0.0,56,0.00,,---,0.00,VWS V14.01,2013-03-17 00:09:00,
2013-03-16 20:14:00,30.4,16.6,28.97,NE,56,0.0,0.0,56,0.00,,---,0.00,VWS V14.01,2013-03-17 00:14:00,
2013-03-16 20:19:00,30.4,16.6,28.97,NE,56,0.0,0.0,56,0.00,,---,0.00,VWS V14.01,2013-03-17 00:19:00,
2013-03-16 20:25:00,30.4,16.6,28.97,NE,56,0.0,0.0,56,0.00,,---,0.00,VWS V14.01,2013-03-17 00:25:00,
2013-03-16 20:31:00,30.6,16.7,28.97,NE,56,0.0,0.0,56,0.00,,---,0.00,VWS V14.01,2013-03-17 00:31:00,
2013-03-16 20:36:00,30.6,16.7,28.97,NE,56,0.0,0.0,56,0.00,,---,0.00,VWS V14.01,2013-03-17 00:36:00,
2013-03-16 20:41:00,30.6,17.1,28.97,NE,56,0.0,0.0,57,0.00,,---,0.00,VWS V14.01,2013-03-17 00:41:00,
2013-03-16 20:48:00,30.6,17.1,29.00,NE,56,0.0,0.0,57,0.00,,---,0.00,VWS V14.01,2013-03-17 00:48:00,
2013-03-16 20:53:00,30.6,17.1,29.00,NE,56,0.0,0.0,57,0.00,,---,0.00,VWS V14.01,2013-03-17 00:53:00,
2013-03-16 20:58:00,30.4,17.0,29.00,NE,56,0.0,0.0,57,0.00,,---,0.00,VWS V14.01,2013-03-17 00:58:00,
2013-03-16 21:03:00,30.6,17.1,29.00,NE,55,0.0,0.0,57,0.00,,---,0.00,VWS V14.01,2013-03-17 01:03:00,
2013-03-16 21:08:00,30.4,17.0,29.00,NE,56,0.0,0.0,57,0.00,,---,0.00,VWS V14.01,2013-03-17 01:08:00,
2013-03-16 21:14:00,30.4,17.4,29.00,NE,56,0.0,0.0,58,0.00,,---,0.00,VWS V14.01,2013-03-17 01:14:00,
2013-03-16 21:19:00,30.4,17.4,29.00,NE,56,0.0,0.0,58,0.00,,---,0.00,VWS V14.01,2013-03-17 01:19:00,
2013-03-16 21:24:00,30.4,17.4,29.00,NE,55,0.0,0.0,58,0.00,,---,0.00,VWS V14.01,2013-03-17 01:24:00,
2013-03-16 21:30:00,30.4,17.4,29.00,NE,56,0.0,0.0,58,0.00,,---,0.00,VWS V14.01,2013-03-17 01:30:00,
2013-03-16 21:35:00,30.4,17.4,29.00,NE,56,0.0,0.0,58,0.00,,---,0.00,VWS V14.01,2013-03-17 01:35:00,
2013-03-16 21:40:00,30.4,17.4,29.00,NE,56,0.0,0.0,58,0.00,,---,0.00,VWS V14.01,2013-03-17 01:40:00,
2013-03-16 21:45:00,30.6,17.6,29.00,NE,56,0.0,0.0,58,0.00,,---,0.00,VWS V14.01,2013-03-17 01:45:00,
2013-03-16 21:50:00,30.6,17.6,29.00,NE,56,0.0,0.0,58,0.00,,---,0.00,VWS V14.01,2013-03-17 01:50:00,
2013-03-16 21:55:00,30.6,17.6,29.00,NE,56,0.0,0.0,58,0.00,,---,0.00,VWS V14.01,2013-03-17 01:55:00,
2013-03-16 22:00:00,30.6,17.6,29.00,NE,56,0.0,0.0,58,0.00,,---,0.00,VWS V14.01,2013-03-17 02:00:00,
2013-03-16 22:05:00,30.4,17.4,29.00,NE,56,0.0,0.0,58,0.00,,---,0.00,VWS V14.01,2013-03-17 02:05:00,
2013-03-16 22:10:00,30.4,17.4,29.00,NE,56,0.0,0.0,58,0.00,,---,0.00,VWS V14.01,2013-03-17 02:10:00,
2013-03-16 22:15:00,30.4,17.4,29.03,NE,56,0.0,0.0,58,0.00,,---,0.00,VWS V14.01,2013-03-17 02:15:00,
2013-03-16 22:20:00,30.4,17.4,29.03,NE,56,0.0,0.0,58,0.00,,---,0.00,VWS V14.01,2013-03-17 02:20:00,
2013-03-16 22:25:00,30.4,17.4,29.03,NE,56,0.0,0.0,58,0.00,,---,0.00,VWS V14.01,2013-03-17 02:25:00,
2013-03-16 22:31:00,30.4,17.4,29.03,NE,56,0.0,0.0,58,0.00,,---,0.00,VWS V14.01,2013-03-17 02:31:00,
2013-03-16 22:36:00,30.4,17.4,29.03,NE,56,0.0,0.0,58,0.00,,---,0.00,VWS V14.01,2013-03-17 02:36:00,
2013-03-16 22:41:00,30.4,17.4,29.03,NE,56,0.0,0.0,58,0.00,,---,0.00,VWS V14.01,2013-03-17 02:41:00,
2013-03-16 22:46:00,30.4,17.0,29.03,NE,56,0.0,0.0,57,0.00,,---,0.00,VWS V14.01,2013-03-17 02:46:00,
2013-03-16 22:52:00,30.4,17.0,29.03,NE,56,0.0,0.0,57,0.00,,---,0.00,VWS V14.01,2013-03-17 02:52:00,
2013-03-16 22:57:00,30.4,17.0,29.03,NE,56,0.0,0.0,57,0.00,,---,0.00,VWS V14.01,2013-03-17 02:57:00,
2013-03-16 23:02:00,30.2,16.8,29.03,NE,55,0.0,0.0,57,0.00,,---,0.00,VWS V14.01,2013-03-17 03:02:00,
2013-03-16 23:08:00,30.2,16.8,29.03,NE,56,0.0,0.0,57,0.00,,---,0.00,VWS V14.01,2013-03-17 03:08:00,
2013-03-16 23:13:00,30.2,16.8,29.03,NE,56,0.0,0.0,57,0.00,,---,0.00,VWS V14.01,2013-03-17 03:13:00,
2013-03-16 23:18:00,30.2,16.8,29.03,NE,56,0.0,0.0,57,0.00,,---,0.00,VWS V14.01,2013-03-17 03:18:00,
2013-03-16 23:23:00,30.0,16.6,29.03,NE,56,0.0,0.0,57,0.00,,---,0.00,VWS V14.01,2013-03-17 03:23:00,
2013-03-16 23:28:00,30.2,16.8,29.03,NE,55,0.0,0.0,57,0.00,,---,0.00,VWS V14.01,2013-03-17 03:28:00,
2013-03-16 23:33:00,30.2,16.8,29.03,NE,56,0.0,0.0,57,0.00,,---,0.00,VWS V14.01,2013-03-17 03:33:00,
2013-03-16 23:38:00,30.0,16.6,29.03,NE,56,0.0,0.0,57,0.00,,---,0.00,VWS V14.01,2013-03-17 03:38:00,
2013-03-16 23:44:00,29.8,16.5,29.03,NE,56,0.0,0.0,57,0.00,,---,0.00,VWS V14.01,2013-03-17 03:44:00,
2013-03-16 23:49:00,29.8,16.5,29.06,NE,55,0.0,0.0,57,0.00,,---,0.00,VWS V14.01,2013-03-17 03:49:00,
2013-03-16 23:54:00,29.8,16.5,29.06,NE,56,0.0,0.0,57,0.00,,---,0.00,VWS V14.01,2013-03-17 03:54:00,
2013-03-16 23:59:00,29.8,16.5,29.06,NE,56,0.0,0.0,57,0.00,,---,0.00,VWS V14.01,2013-03-17 03:59:00,